Tracking 20721 objects as of 31-May-2020
HD Live streaming from Space Station
objects crossing your sky now
Track the CREW DRAGON and SPACE STATION

FENGYUN 1C DEB

Track FENGYUN 1C DEB now!
10-day predictions


NORAD ID: 32167
Int'l Code: 1999-025CTM
Perigee: 687.0 km
Apogee: 935.7 km
Inclination: 98.5 °
Period: 101.0 minutes
Semi major axis: 7182 km
RCS: 0.0085 m2 (small)
Launch date: May 10, 1999
Source: People's Republic of China (PRC)
Launch site: Taiyaun Space Center, China (TSC)

Note: This is SATELLITE DEBRIS
aabbcc
Your satellite tracking list
Your tracking list is empty




NASA's NSSDC Master Catalog

Two Line Element Set (TLE):
1 32167U 99025CTM 20151.81062578 +.00000129 +00000-0 +62695-4 0  9994
2 32167 098.5195 178.9393 0173148 240.4055 117.9776 14.26274748338234
Source of the keplerian elements: AFSPC